RH
16 20 21 22 20 19 18 24 21 17 21 22 21 19 11 9 10 14 15 16 16 17 20 23 25 30 35 36 42 37 41 51 46 47 59 54 49 44 44 49 46 45 50 52 54
12 13 15 15 19 18 17 17 21 18 18 20 21 20 20 13 8 10 13 16 16 17 20 24 26 31 35 36 44 40 45 49 39 44 48 47 46 51 40 47 50 50 50 52 55
12 10 9 10 11 12 14 13 15 15 18 20 17 19 18 20 16 11 9 12 14 16 19 25 26 29 33 35 42 41 40 47 39 40 41 42 46 56 44 53 62 59 51 57 57
11 15 14 11 9 9 8 8 12 13 14 14 22 18 18 17 26 20 12 8 9 13 16 19 25 29 31 33 40 45 41 40 37 37 34 39 50 55 45 54 53 59 51 55 59
3 4 5 9 14 11 9 8 8 9 12 13 13 19 19 20 19 22 18 14 10 9 12 15 20 25 30 34 44 47 40 40 33 32 33 36 42 42 50 55 47 46 50 54 59
3 2 2 3 4 7 13 11 8 8 8 9 12 12 16 21 18 20 22 19 14 11 10 13 16 22 29 33 41 46 42 38 36 34 34 33 35 42 42 45 42 45 53 56 58
5 4 3 3 2 2 3 6 13 10 7 7 8 11 13 14 15 21 23 24 21 15 11 13 15 18 24 30 35 41 40 37 35 42 43 39 39 43 42 45 42 44 52 54 60
6 6 5 4 3 2 2 2 3 8 12 8 8 9 10 11 11 11 19 27 24 20 14 13 18 19 19 26 34 37 38 37 43 45 47 42 40 46 56 47 43 45 50 56 57
8 7 7 6 5 4 3 3 2 2 5 10 12 12 11 9 8 12 16 12 28 26 19 17 21 22 19 22 31 35 33 37 39 47 53 48 38 48 51 35 47 53 56 56 55
10 9 8 7 7 6 6 5 5 5 5 5 10 17 12 9 10 10 11 13 24 28 27 26 23 22 21 23 26 27 31 32 42 48 54 49 44 38 50 41 44 53 55 54 55
12 11 10 8 8 9 8 10 11 18 10 10 14 11 13 13 10 12 12 11 16 18 20 30 32 24 21 22 24 20 30 36 37 38 55 51 42 43 39 56 43 52 51 53 50
13 12 11 10 11 11 13 13 16 16 13 8 6 5 4 8 15 10 13 13 17 19 16 23 27 33 31 26 26 25 31 31 35 40 38 44 43 40 40 40 48 55 54 52 52
14 13 11 11 12 16 17 17 19 21 20 10 10 10 7 7 7 13 12 13 16 22 18 17 21 27 31 35 31 31 32 35 36 37 37 43 38 37 38 42 47 47 52 51 49
14 12 11 10 16 14 23 16 19 20 22 12 15 15 13 11 11 7 14 13 15 19 26 23 21 27 30 27 28 31 36 37 38 38 38 46 42 36 35 36 43 40 45 49 46
15 13 12 12 16 20 13 12 18 29 52 10 15 12 12 12 10 12 9 14 13 16 25 19 30 26 28 28 33 29 29 41 45 44 42 40 38 32 33 36 49 41 49 47 44
16 14 12 16 21 14 12 13 21 37 44 9 11 14 17 15 12 11 13 13 17 18 20 19 24 30 26 29 28 32 33 35 45 47 47 39 37 32 33 38 45 38 44 51 46
18 17 14 19 19 11 12 22 35 52 10 7 6 8 10 14 16 20 16 16 19 21 19 15 21 23 29 30 31 31 37 49 48 56 46 39 37 32 33 35 47 40 37 38 40
20 19 20 21 20 13 19 29 51 16 12 9 9 9 9 10 12 16 20 24 20 23 19 23 22 20 21 26 27 31 38 46 52 44 40 38 38 33 30 36 41 38 25 33 36
25 35 26 26 25 20 26 36 25 14 12 12 11 11 11 11 14 13 18 24 20 24 24 24 21 21 30 26 28 28 38 30 49 47 44 37 34 34 38 37 39 34 24 28 32
38 40 39 31 31 35 32 25 21 19 17 17 18 14 12 10 15 16 18 17 23 21 26 22 27 23 25 34 32 30 27 47 45 59 50 39 35 40 41 34 33 28 27 28 34
44 46 49 42 44 50 48 37 28 24 25 23 20 23 20 18 13 17 18 20 20 22 23 24 34 24 29 31 30 33 32 40 43 45 44 46 37 33 39 43 39 27 28 36 38
57 57 61 53 59 58 50 43 35 34 38 36 34 28 32 27 26 22 19 17 17 23 31 29 32 30 29 30 36 33 32 27 46 40 44 42 35 34 37 38 37 35 36 41 44
64 63 64 62 64 55 47 41 38 33 39 38 39 36 34 34 40 35 25 18 20 19 33 33 36 41 38 35 36 40 29 40 43 47 43 47 33 36 40 40 40 35 37 42 41
70 68 67 72 67 64 58 51 45 42 40 43 42 44 48 45 40 55 40 24 24 22 23 35 45 42 38 33 27 40 33 30 45 50 35 36 41 35 41 40 37 32 36 36 35
74 66 64 66 63 69 67 62 60 50 52 50 49 48 57 57 50 53 53 40 40 37 34 46 55 45 40 33 34 34 37 33 34 28 47 29 38 38 36 44 43 34 40 34 32
72 70 71 62 65 67 66 67 66 63 63 56 73 61 66 74 79 62 64 60 55 56 64 57 58 49 41 32 37 35 30 37 31 23 33 38 32 37 40 47 44 44 39 38 34
60 67 79 58 60 68 57 69 77 74 73 83 84 83 76 75 71 88 73 71 74 85 79 81 73 55 52 32 40 42 32 29 27 29 26 37 26 36 37 41 47 45 45 40 34